Grub im Wienerwald
Wetterdaten: aktuell Donnerstag, 23.09.2021 20:30
Datum Zeit Temp. A. Feuchte A. Luftdruck Regen Wind Richtung Richtung Sonnenschein UV Solar Taupunkt Windchill Windben
23.09.2021 20:30 12,3 C 86 % 1014,5 hPa 0,0 l/m 0,1 km/h NW 305 0 min 0,0 UV-I 0 W/m 10,0 C 12,3 C 1,6 km/h
23.09.2021 20:27 12,4 C 86 % 1014,5 hPa 0,0 l/m 0,0 km/h NW 305 0 min 0,0 UV-I 0 W/m 10,1 C 12,4 C 0,0 km/h
23.09.2021 20:24 12,6 C 85 % 1014,5 hPa 0,0 l/m 0,0 km/h NW 305 0 min 0,0 UV-I 0 W/m 10,1 C 12,6 C 0,0 km/h
23.09.2021 20:21 12,7 C 85 % 1014,5 hPa 0,0 l/m 0,0 km/h NW 305 0 min 0,0 UV-I 0 W/m 10,2 C 12,7 C 0,0 km/h
23.09.2021 20:18 12,8 C 85 % 1014,5 hPa 0,0 l/m 0,0 km/h NW 305 0 min 0,0 UV-I 0 W/m 10,3 C 12,8 C 0,0 km/h
23.09.2021 20:15 12,9 C 85 % 1014,6 hPa 0,0 l/m 0,0 km/h NW 305 0 min 0,0 UV-I 0 W/m 10,4 C 12,9 C 0,0 km/h
23.09.2021 20:12 13,0 C 84 % 1014,6 hPa 0,0 l/m 0,0 km/h NW 305 0 min 0,0 UV-I 0 W/m 10,4 C 13,0 C 0,0 km/h
23.09.2021 20:09 13,1 C 84 % 1014,7 hPa 0,0 l/m 0,0 km/h NW 305 0 min 0,0 UV-I 0 W/m 10,5 C 13,1 C 0,0 km/h
23.09.2021 20:06 13,2 C 84 % 1014,7 hPa 0,0 l/m 0,0 km/h NW 305 0 min 0,0 UV-I 0 W/m 10,6 C 13,2 C 0,0 km/h
23.09.2021 20:03 13,2 C 84 % 1014,7 hPa 0,0 l/m 0,0 km/h NW 305 0 min 0,0 UV-I 0 W/m 10,6 C 13,2 C 0,0 km/h
23.09.2021 20:00 13,3 C 84 % 1014,7 hPa 0,0 l/m 0,0 km/h NW 305 0 min 0,0 UV-I 0 W/m 10,7 C 13,3 C 0,0 km/h
23.09.2021 19:57 13,4 C 83 % 1014,7 hPa 0,0 l/m 0,0 km/h NW 305 0 min 0,0 UV-I 0 W/m 10,6 C 13,4 C 0,0 km/h
23.09.2021 19:54 13,6 C 83 % 1014,6 hPa 0,0 l/m 0,0 km/h NW 305 0 min 0,0 UV-I 0 W/m 10,8 C 13,6 C 0,0 km/h
23.09.2021 19:51 13,7 C 83 % 1014,6 hPa 0,0 l/m 0,0 km/h NW 305 0 min 0,0 UV-I 0 W/m 10,9 C 13,7 C 0,0 km/h
23.09.2021 19:48 13,8 C 83 % 1014,7 hPa 0,0 l/m 0,0 km/h NW 305 0 min 0,0 UV-I 0 W/m 11,0 C 13,8 C 0,0 km/h
23.09.2021 19:45 13,9 C 82 % 1014,7 hPa 0,0 l/m 0,0 km/h NW 305 0 min 0,0 UV-I 0 W/m 10,9 C 13,9 C 0,0 km/h
23.09.2021 19:42 14,1 C 82 % 1014,7 hPa 0,0 l/m 0,0 km/h NW 305 0 min 0,0 UV-I 0 W/m 11,1 C 14,1 C 0,0 km/h
23.09.2021 19:39 14,2 C 82 % 1014,7 hPa 0,0 l/m 0,0 km/h NW 305 0 min 0,0 UV-I 0 W/m 11,2 C 14,2 C 0,0 km/h
23.09.2021 19:36 14,3 C 81 % 1014,8 hPa 0,0 l/m 0,0 km/h NW 305 0 min 0,0 UV-I 0 W/m 11,1 C 14,3 C 0,0 km/h
23.09.2021 19:33 14,6 C 81 % 1014,8 hPa 0,0 l/m 0,0 km/h NW 305 0 min 0,0 UV-I 0 W/m 11,4 C 14,6 C 1,6 km/h
23.09.2021 19:30 14,7 C 80 % 1014,8 hPa 0,0 l/m 0,0 km/h NW 305 0 min 0,0 UV-I 0 W/m 11,3 C 14,7 C 0,0 km/h
23.09.2021 19:27 14,7 C 80 % 1014,8 hPa 0,0 l/m 0,0 km/h NW 305 0 min 0,0 UV-I 0 W/m 11,3 C 14,7 C 1,6 km/h
23.09.2021 19:24 14,8 C 80 % 1014,9 hPa 0,0 l/m 0,3 km/h NW 305 0 min 0,0 UV-I 0 W/m 11,4 C 14,8 C 1,6 km/h
23.09.2021 19:21 14,8 C 80 % 1014,9 hPa 0,0 l/m 2,1 km/h NW 305 0 min 0,0 UV-I 0 W/m 11,4 C 14,8 C 3,2 km/h
23.09.2021 19:18 14,9 C 80 % 1015,0 hPa 0,0 l/m 1,0 km/h NW 305 0 min 0,0 UV-I 0 W/m 11,5 C 14,9 C 3,2 km/h
23.09.2021 19:15 15,0 C 80 % 1015,0 hPa 0,0 l/m 0,2 km/h NW 305 0 min 0,0 UV-I 0 W/m 11,6 C 15,0 C 1,6 km/h
23.09.2021 19:12 15,2 C 79 % 1015,1 hPa 0,0 l/m 0,0 km/h NW 305 0 min 0,0 UV-I 0 W/m 11,6 C 15,2 C 0,0 km/h
23.09.2021 19:09 15,3 C 79 % 1015,2 hPa 0,0 l/m 0,0 km/h NW 305 0 min 0,0 UV-I 0 W/m 11,7 C 15,3 C 1,6 km/h
23.09.2021 19:06 15,6 C 78 % 1015,3 hPa 0,0 l/m 0,3 km/h NW 305 0 min 0,0 UV-I 5 W/m 11,8 C 15,6 C 3,2 km/h
23.09.2021 19:03 15,8 C 78 % 1015,2 hPa 0,0 l/m 2,7 km/h NW 305 0 min 0,0 UV-I 7 W/m 12,0 C 15,8 C 4,8 km/h
23.09.2021 19:00 15,9 C 77 % 1015,2 hPa 0,0 l/m 1,9 km/h NW 305 0 min 0,0 UV-I 7 W/m 11,9 C 15,9 C 4,8 km/h
23.09.2021 18:57 16,1 C 76 % 1015,2 hPa 0,0 l/m 1,3 km/h NW 305 0 min 0,0 UV-I 7 W/m 11,9 C 16,1 C 3,2 km/h
23.09.2021 18:54 16,3 C 76 % 1015,2 hPa 0,0 l/m 0,0 km/h NW 305 0 min 0,0 UV-I 7 W/m 12,1 C 16,3 C 1,6 km/h
23.09.2021 18:51 16,4 C 75 % 1015,3 hPa 0,0 l/m 0,3 km/h NW 305 0 min 0,0 UV-I 9 W/m 12,0 C 16,4 C 3,2 km/h
23.09.2021 18:48 16,6 C 75 % 1015,2 hPa 0,0 l/m 1,9 km/h NW 305 0 min 0,0 UV-I 11 W/m 12,1 C 16,6 C 4,8 km/h
23.09.2021 18:45 16,8 C 74 % 1015,2 hPa 0,0 l/m 2,0 km/h NW 305 0 min 0,0 UV-I 12 W/m 12,1 C 16,8 C 4,8 km/h
23.09.2021 18:42 16,9 C 74 % 1015,2 hPa 0,0 l/m 2,6 km/h NW 305 0 min 0,0 UV-I 14 W/m 12,2 C 16,9 C 4,8 km/h
23.09.2021 18:39 17,2 C 73 % 1015,2 hPa 0,0 l/m 2,3 km/h NW 305 3 min 0,0 UV-I 16 W/m 12,3 C 17,2 C 4,8 km/h
23.09.2021 18:36 17,3 C 73 % 1015,2 hPa 0,0 l/m 2,2 km/h NW 305 3 min 0,0 UV-I 18 W/m 12,4 C 17,3 C 4,8 km/h
23.09.2021 18:33 17,4 C 72 % 1015,3 hPa 0,0 l/m 1,2 km/h NW 305 0 min 0,0 UV-I 21 W/m 12,3 C 17,4 C 4,8 km/h
23.09.2021 18:30 17,6 C 72 % 1015,3 hPa 0,0 l/m 3,6 km/h NW 305 0 min 0,0 UV-I 21 W/m 12,5 C 17,6 C 4,8 km/h
23.09.2021 18:27 17,7 C 72 % 1015,3 hPa 0,0 l/m 1,7 km/h NW 305 0 min 0,0 UV-I 25 W/m 12,6 C 17,7 C 4,8 km/h
23.09.2021 18:24 17,8 C 71 % 1015,3 hPa 0,0 l/m 3,3 km/h NW 305 0 min 0,0 UV-I 26 W/m 12,5 C 17,8 C 4,8 km/h
23.09.2021 18:21 17,9 C 72 % 1015,3 hPa 0,0 l/m 2,9 km/h NW 305 0 min 0,0 UV-I 26 W/m 12,8 C 17,9 C 4,8 km/h
23.09.2021 18:18 18,1 C 72 % 1015,4 hPa 0,0 l/m 2,5 km/h NW 305 0 min 0,0 UV-I 28 W/m 13,0 C 18,1 C 4,8 km/h
23.09.2021 18:15 18,2 C 71 % 1015,3 hPa 0,0 l/m 1,4 km/h NW 305 0 min 0,0 UV-I 32 W/m 12,9 C 18,2 C 4,8 km/h
23.09.2021 18:12 18,3 C 70 % 1015,4 hPa 0,0 l/m 0,3 km/h NW 305 0 min 0,0 UV-I 33 W/m 12,7 C 18,3 C 3,2 km/h
23.09.2021 18:09 18,4 C 70 % 1015,4 hPa 0,0 l/m 1,3 km/h NW 305 0 min 0,0 UV-I 35 W/m 12,8 C 18,4 C 4,8 km/h
23.09.2021 18:06 18,6 C 68 % 1015,5 hPa 0,0 l/m 0,0 km/h NW 305 0 min 0,0 UV-I 35 W/m 12,6 C 18,6 C 1,6 km/h
23.09.2021 18:03 18,6 C 68 % 1015,5 hPa 0,0 l/m 0,1 km/h NW 305 0 min 0,0 UV-I 39 W/m 12,6 C 18,6 C 1,6 km/h
23.09.2021 18:00 18,7 C 67 % 1015,6 hPa 0,0 l/m 0,0 km/h NW 305 0 min 0,0 UV-I 39 W/m 12,4 C 18,7 C 0,0 km/h
23.09.2021 17:57 18,7 C 67 % 1015,5 hPa 0,0 l/m 0,0 km/h NW 305 0 min 0,0 UV-I 40 W/m 12,4 C 18,7 C 1,6 km/h
23.09.2021 17:54 18,7 C 67 % 1015,6 hPa 0,0 l/m 0,0 km/h NW 305 0 min 0,0 UV-I 42 W/m 12,4 C 18,7 C 0,0 km/h
23.09.2021 17:51 18,7 C 67 % 1015,6 hPa 0,0 l/m 0,0 km/h NW 305 0 min 0,0 UV-I 44 W/m 12,4 C 18,7 C 1,6 km/h
23.09.2021 17:48 18,7 C 67 % 1015,6 hPa 0,0 l/m 0,0 km/h NW 305 0 min 0,0 UV-I 47 W/m 12,4 C 18,7 C 0,0 km/h
23.09.2021 17:45 18,7 C 68 % 1015,6 hPa 0,0 l/m 0,9 km/h NW 305 0 min 0,0 UV-I 49 W/m 12,7 C 18,7 C 4,8 km/h
23.09.2021 17:42 18,8 C 67 % 1015,6 hPa 0,0 l/m 0,2 km/h NW 305 0 min 0,0 UV-I 51 W/m 12,5 C 18,8 C 3,2 km/h
23.09.2021 17:39 18,8 C 67 % 1015,6 hPa 0,0 l/m 1,7 km/h NW 305 0 min 0,0 UV-I 51 W/m 12,5 C 18,8 C 6,4 km/h
23.09.2021 17:36 18,8 C 67 % 1015,6 hPa 0,0 l/m 0,1 km/h NW 306 0 min 0,8 UV-I 54 W/m 12,5 C 18,8 C 1,6 km/h
23.09.2021 17:33 18,8 C 67 % 1015,7 hPa 0,0 l/m 1,8 km/h NW 306 0 min 0,0 UV-I 54 W/m 12,5 C 18,8 C 4,8 km/h
23.09.2021 17:30 18,9 C 66 % 1015,7 hPa 0,0 l/m 0,6 km/h NW 306 0 min 0,9 UV-I 83 W/m 12,4 C 18,9 C 4,8 km/h
23.09.2021 17:27 18,9 C 65 % 1015,8 hPa 0,0 l/m 0,0 km/h NW 306 3 min 0,9 UV-I 144 W/m 12,2 C 18,9 C 0,0 km/h
23.09.2021 17:24 19,1 C 65 % 1015,9 hPa 0,0 l/m 1,7 km/h NW 306 3 min 0,9 UV-I 188 W/m 12,4 C 19,1 C 4,8 km/h
23.09.2021 17:21 19,3 C 64 % 1015,9 hPa 0,0 l/m 3,0 km/h NW 306 3 min 1,0 UV-I 192 W/m 12,3 C 19,3 C 8,0 km/h
23.09.2021 17:18 19,4 C 63 % 1015,9 hPa 0,0 l/m 2,3 km/h NW 316 3 min 1,0 UV-I 202 W/m 12,2 C 19,4 C 4,8 km/h
23.09.2021 17:15 19,6 C 62 % 1016,0 hPa 0,0 l/m 2,7 km/h NW 316 3 min 1,0 UV-I 214 W/m 12,1 C 19,6 C 6,4 km/h
23.09.2021 17:12 19,8 C 60 % 1015,9 hPa 0,0 l/m 2,3 km/h NW 317 3 min 1,1 UV-I 232 W/m 11,8 C 19,8 C 6,4 km/h
23.09.2021 17:09 20,1 C 58 % 1016,1 hPa 0,0 l/m 2,7 km/h NW 323 3 min 1,1 UV-I 237 W/m 11,6 C 20,1 C 6,4 km/h
23.09.2021 17:06 20,3 C 58 % 1016,1 hPa 0,0 l/m 2,9 km/h NW 323 3 min 1,1 UV-I 239 W/m 11,8 C 20,3 C 8,0 km/h
23.09.2021 17:03 20,6 C 56 % 1016,1 hPa 0,0 l/m 2,5 km/h N-NW 330 3 min 1,2 UV-I 250 W/m 11,5 C 20,6 C 8,0 km/h
23.09.2021 17:00 20,8 C 55 % 1016,2 hPa 0,0 l/m 0,8 km/h N-NW 337 3 min 1,2 UV-I 264 W/m 11,4 C 20,8 C 3,2 km/h
23.09.2021 16:57 21,0 C 55 % 1016,2 hPa 0,0 l/m 0,0 km/h N-NW 336 3 min 1,3 UV-I 274 W/m 11,6 C 21,0 C 0,0 km/h
23.09.2021 16:54 21,1 C 60 % 1016,2 hPa 0,0 l/m 0,7 km/h N-NW 337 3 min 1,3 UV-I 287 W/m 13,0 C 21,1 C 3,2 km/h
23.09.2021 16:51 21,2 C 58 % 1016,4 hPa 0,0 l/m 1,3 km/h N-NW 337 3 min 1,3 UV-I 294 W/m 12,6 C 21,2 C 6,4 km/h
23.09.2021 16:48 21,3 C 57 % 1016,4 hPa 0,0 l/m 3,0 km/h N-NW 337 3 min 1,5 UV-I 306 W/m 12,4 C 21,3 C 6,4 km/h
23.09.2021 16:45 21,4 C 55 % 1016,3 hPa 0,0 l/m 0,0 km/h N-NW 336 3 min 1,5 UV-I 311 W/m 12,0 C 21,4 C 0,0 km/h
23.09.2021 16:42 21,6 C 48 % 1016,4 hPa 0,0 l/m 0,6 km/h N-NW 336 3 min 1,5 UV-I 320 W/m 10,1 C 21,6 C 3,2 km/h
23.09.2021 16:39 21,7 C 50 % 1016,4 hPa 0,0 l/m 3,2 km/h N-NW 336 3 min 1,6 UV-I 327 W/m 10,8 C 21,7 C 6,4 km/h
23.09.2021 16:36 21,8 C 49 % 1016,4 hPa 0,0 l/m 3,4 km/h N-NW 336 3 min 1,6 UV-I 341 W/m 10,6 C 21,8 C 4,8 km/h
23.09.2021 16:33 22,1 C 48 % 1016,5 hPa 0,0 l/m 2,6 km/h N-NW 336 3 min 1,7 UV-I 346 W/m 10,6 C 22,1 C 6,4 km/h
23.09.2021 16:30 22,1 C 52 % 1016,6 hPa 0,0 l/m 2,8 km/h N-NW 336 3 min 1,7 UV-I 359 W/m 11,8 C 22,1 C 6,4 km/h
23.09.2021 16:27 22,1 C 53 % 1016,6 hPa 0,0 l/m 2,7 km/h N-NW 336 3 min 1,8 UV-I 369 W/m 12,1 C 22,1 C 8,0 km/h
23.09.2021 16:24 22,1 C 48 % 1016,6 hPa 0,0 l/m 6,3 km/h N-NW 336 3 min 1,9 UV-I 383 W/m 10,6 C 22,1 C 11,3 km/h
23.09.2021 16:21 22,2 C 50 % 1016,6 hPa 0,0 l/m 1,5 km/h N-NW 334 3 min 1,9 UV-I 392 W/m 11,3 C 22,2 C 4,8 km/h
23.09.2021 16:18 22,2 C 48 % 1016,6 hPa 0,0 l/m 2,3 km/h N-NW 334 3 min 2,0 UV-I 397 W/m 10,7 C 22,2 C 6,4 km/h
23.09.2021 16:15 22,2 C 48 % 1016,7 hPa 0,0 l/m 5,1 km/h N-NW 334 3 min 2,0 UV-I 406 W/m 10,7 C 22,2 C 9,7 km/h
23.09.2021 16:12 22,2 C 49 % 1016,7 hPa 0,0 l/m 5,9 km/h N-NW 333 3 min 2,1 UV-I 408 W/m 11,0 C 22,2 C 11,3 km/h
23.09.2021 16:09 22,2 C 48 % 1016,8 hPa 0,0 l/m 6,2 km/h N-NW 333 3 min 2,1 UV-I 413 W/m 10,7 C 22,2 C 11,3 km/h
23.09.2021 16:06 22,2 C 49 % 1016,9 hPa 0,0 l/m 5,7 km/h N-NW 332 3 min 2,1 UV-I 422 W/m 11,0 C 22,2 C 9,7 km/h
23.09.2021 16:03 22,1 C 48 % 1016,9 hPa 0,0 l/m 5,1 km/h N-NW 332 3 min 2,4 UV-I 452 W/m 10,6 C 22,1 C 11,3 km/h
23.09.2021 16:00 22,1 C 48 % 1016,9 hPa 0,0 l/m 3,2 km/h NW 326 3 min 2,4 UV-I 469 W/m 10,6 C 22,1 C 8,0 km/h
_ Min-Zeit 02:54 15:54 20:18 - 16:45 - - - - - 02:54 05:27 16:45
Minimum _ 8,4 C 45 % 1014,5 hPa - 0,0 km/h - - - - - 8,0 C 6,2 C 0,0 km/h
_ Max-Zeit 15:57 00:54 00:24 21:36 05:27 - - 06:54 12:36 12:57 13:45 15:57 06:42
Maximum _ 22,2 C 97 % 1024,6 hPa 0,2 l/m 10,1 km/h
NW
- - 3 min 5,3 UV-I 680 W/m 13,3 C 22,2 C 22,5 km/h
W-NW
Durchschnitt _ 13,2 C 83 % 1021,2 hPa #0,4 l/m 4,2 km/h N-NW - #9:03 h 3,1 UV-I 363 W/m 10,0 C 13,0 C 8,4 km/h
Schulla EDV